This is the latest recevied weather packets stored in our database for station/object N2ZVN. If no packets are shown the sender has not sent any weather packets the latest 10 day(s).
| Time | Temp. | Humidity | Pressure | Rain* | Wind** | Luminosity | Snow |
|---|---|---|---|---|---|---|---|
| 1777585713 | 10° C | 55% | 1012.5 hPa | 0 mm | - | 123 W/m² | - |
| 1777585413 | 10° C | 53% | 1012.4 hPa | 0 mm | - | 119 W/m² | - |
| 1777585108 | 10° C | 54% | 1012.2 hPa | 0 mm | - | 106 W/m² | - |
| 1777584805 | 10° C | 53% | 1012.5 hPa | 0 mm | - | 87 W/m² | - |
| 1777584503 | 10° C | 53% | 1012.3 hPa | 0 mm | - | 95 W/m² | - |
| 1777584199 | 10° C | 55% | 1012.3 hPa | 0 mm | - | 121 W/m² | - |
| 1777583898 | 10° C | 54% | 1012.3 hPa | 0 mm | - | 137 W/m² | - |
| 1777583594 | 10.56° C | 51% | 1012.3 hPa | 0 mm | - | 129 W/m² | - |
| 1777583292 | 10.56° C | 50% | 1012 hPa | 0 mm | - | 201 W/m² | - |
| 1777582988 | 11.11° C | 51% | 1012 hPa | 0 mm | - | 319 W/m² | - |
| 1777582686 | 10.56° C | 52% | 1011.9 hPa | 0 mm | - | 177 W/m² | - |
| 1777582380 | 10.56° C | 51% | 1012 hPa | 0 mm | - | 211 W/m² | - |
| 1777582079 | 10.56° C | 50% | 1012.1 hPa | 0 mm | - | 140 W/m² | - |
| 1777581774 | 10.56° C | 47% | 1012 hPa | 0 mm | - | 143 W/m² | - |
| 1777581472 | 11.11° C | 50% | 1012 hPa | 0 mm | - | 162 W/m² | - |
| 1777581168 | 10.56° C | 53% | 1012.1 hPa | 0 mm | - | 224 W/m² | - |
| 1777580868 | 10.56° C | 48% | 1012.1 hPa | 0 mm | - | 232 W/m² | - |
| 1777580563 | 10.56° C | 52% | 1011.9 hPa | 0 mm | - | 204 W/m² | - |
| 1777580259 | 10.56° C | 50% | 1011.9 hPa | 0 mm | - | 208 W/m² | - |
| 1777579956 | 10.56° C | 54% | 1011.9 hPa | 0 mm | - | 243 W/m² | - |
| 1777579651 | 10.56° C | 53% | 1012 hPa | 0 mm | - | 222 W/m² | - |
| 1777579350 | 10.56° C | 53% | 1011.7 hPa | 0 mm | - | 249 W/m² | - |
| 1777579046 | 10.56° C | 53% | 1011.7 hPa | 0 mm | - | 214 W/m² | - |
| 1777578741 | 10° C | 55% | 1011.9 hPa | 0 mm | - | 241 W/m² | - |
| 1777578441 | 10° C | 53% | 1012 hPa | 0 mm | - | 132 W/m² | - |
* Rain latest hour (hover to see other rain measurements)
** Current wind speed in m/s (hover to see current wind gust speed)